Regional Weather Roundup
Issued by NWS

Home | Current Version | Previous Version | Text Only | Print | Product List | Glossary On
Versions: 1 2 3 4 5 6 7 8 9 10 11 12 13 14 15 16 17 18 19 20 21 22 23 24 25 26 27 28 29 30 31 32 33 34 35 36 37 38 39 40 41 42 43 44 45 46 47 48 49 50
000
ASUS43 KDTX 040810
RWRMI
MICHIGAN HOURLY REGIONAL WEATHER ROUNDUP
NATIONAL WEATHER SERVICE DETROIT/PONTIAC MI
400 AM EDT MON MAY 04 2015

NOTE: "FAIR" INDICATES FEW OR NO CLOUDS BELOW 12,000 FEET WITH NO
SIGNIFICANT WEATHER AND/OR OBSTRUCTION TO VISIBILITY.

MIZ047>049-052>055-059>063-066>070-074>076-081>083-040900-
SOUTHEAST LOWER MICHIGAN

CITY           SKY/WX    TMP DP  RH WIND       PRES   REMARKS
ADRIAN         MOCLDY    63  48  58 SW8       30.03S
ALMA           CLOUDY    66  49  53 SW14G22   29.96R
ANN ARBOR      CLOUDY    62  48  60 S8        30.02S
BAD AXE        PTCLDY    62  46  54 S10       29.96S
CARO           PTCLDY    65  47  52 CALM      29.95S
DETROIT CITY   PTCLDY    64  47  53 S7        30.01F HAZE
DETROIT        MOCLDY    66  48  52 S8        30.02F
FLINT          MOCLDY    70  46  42 S12       29.98S
GROSSE ILE     MOCLDY    59  52  77 S9        30.01F
HILLSDALE      MOCLDY    64  47  55 S6        30.03S
HOWELL         MOCLDY    67  46  46 S8        29.99S

CITY           SKY/WX    TMP DP  RH WIND       PRES   REMARKS
JACKSON        CLOUDY    68  46  45 SW12      30.00F
LAMBERTVILLE   MOCLDY    64  46  52 SW9       30.04S
LANSING        CLOUDY    67  47  48 SW12      29.99R
LAPEER         CLOUDY    67  45  44 SW10G16   29.98F
MASON          CLOUDY    67  46  45 SW9       29.99S
MONROE         MOCLDY    63  48  59 S7        30.02R
PONTIAC        MOCLDY    65  47  52 S7        30.00S
PORT HOPE        N/A     67  45  45 SW8       29.93S
PORT HURON     PTCLDY    59  48  67 S6        30.00F
TRI CITIES     MOCLDY    66  47  50 S9        29.94S
MIDLAND        FAIR      65  46  51 S6        29.93R
TROY           MOCLDY    66  46  49 S8        30.03S
SAGINAW HB     MOCLDY    68  45  42 S13       29.94F
$$
MIZ043>046-050>051-056>058-064>065-071>073-077>080-040900-
SOUTHWEST LOWER MICHIGAN

CITY           SKY/WX    TMP DP  RH WIND       PRES   REMARKS
BATTLE CREEK   LGT RAIN  60  54  80 S12       30.01S
BENTON HARBOR  CLOUDY    65  48  54 S9        29.93F
BIG RAPIDS     LGT RAIN  61  54  76 SW7G17    29.94R
COLDWATER      CLOUDY    64  46  51 SW3       30.01S
FREMONT        CLOUDY    61  55  79 S13G21    29.89F
HOLLAND        CLOUDY    61  54  77 S10       29.92F
GRAND RAPIDS   LGT RAIN  59  55  87 S12       29.96F FOG
IONIA          RAIN      60  56  89 SW12G17   29.98F
KALAMAZOO      LGT RAIN  60  55  83 SE6       29.98F
LUDINGTON      RAIN      56  51  85 SW7       29.93F
MARSHALL       RAIN      61  52  72 W13       30.02R
MOUNT PLEASANT CLOUDY    65  49  55 SW14G21   29.93S
MUSKEGON       CLOUDY    63  54  72 S14       29.89F
SOUTH HAVEN    CLOUDY    64  52  66 S7        29.93F
$$
MIZ016>042-040900-
NORTHERN LOWER MICHIGAN

CITY           SKY/WX    TMP DP  RH WIND       PRES   REMARKS
ALPENA         MOCLDY    61  46  57 NE5       29.90S
BEAVER ISLAND  CLOUDY    55  53  94 SW6       29.85R
BELLAIRE       CLOUDY    61  51  70 SW3       29.88F
CADILLAC       CLOUDY    59  49  69 SW8       29.93R
CHARLEVOIX     CLOUDY    58  51  77 SW6       29.90R
FRANKFORT      CLOUDY    59  48  67 SW13G20   29.90R
GAYLORD        CLOUDY    56  49  77 S6        29.90F
GRAYLING       CLOUDY    55  46  72 CALM      29.92F
HARBOR SPRINGS CLOUDY    53  48  84 CALM      29.87R
HOUGHTON LAKE  CLOUDY    60  47  61 S5        29.92S
MANISTEE       CLOUDY    55  52  88 S5        29.92F
OSCODA         PTCLDY    62  49  60 S6        29.91S
ROGERS CITY    CLOUDY    55  52  88 S6        29.88F
TRAVERSE CITY  CLOUDY    59  50  72 CALM      29.88F
$$
MIZ007>008-015-040900-
EASTERN UPPER MICHIGAN

CITY           SKY/WX    TMP DP  RH WIND       PRES   REMARKS
KINROSS        CLOUDY    54  54 100 S3        29.85S
MACKINAC ISLAN CLOUDY    54  52  94 SW8       29.84S
NEWBERRY       CLOUDY    52  52  99 SW8       29.82F FOG
S. S. MARIE    CLOUDY    57  54  89 S9        29.82F
MUNISING         N/A     53  44  71 N10       29.83R
$$
MIZ004>006-011>014-085-040900-
CENTRAL UPPER MICHIGAN

CITY           SKY/WX    TMP DP  RH WIND       PRES   REMARKS
MANISTIQUE     CLOUDY    47  46  96 SW6       29.85R FOG
ESCANABA       CLOUDY    54  50  87 CALM      29.85S
MENOMINEE      CLOUDY    57  54  88 S10       29.85S
SAWYER-GWINN   CLOUDY    53  47  80 NW6       29.86R
$$
MIZ001>003-009>011-084-040900-
WESTERN UPPER MICHIGAN

CITY           SKY/WX    TMP DP  RH WIND       PRES   REMARKS
IRON MOUNTAIN  CLOUDY    53  50  89 N5        29.87S
HOUGHTON       CLOUDY    50  33  52 NW12      29.90R
COPPER HARBOR    N/A     53  31  42 N12       29.88R
IRONWOOD       MOCLDY    50  41  71 NW8       29.95R
$$

ABBREVIATIONS USED IN REMARKS
   TC - TEMPERATURE IN CELSIUS
  WCI - WIND CHILL INDEX
   HX - HEAT INDEX
  VSB - VISIBILITY




USA.gov is the U.S. government's official web portal to all federal, state and local government web resources and services.